Regional Weather Roundup
Issued by NWS

Home | Current Version | Previous Version | Text Only | Print | Product List | Glossary On
Versions: 1 2 3 4 5 6 7 8 9 10 11 12 13 14 15 16 17 18 19 20 21 22 23 24 25 26 27 28 29 30 31 32 33 34 35 36 37 38 39 40 41 42 43 44 45 46 47 48 49 50
000
ASHW40 PHFO 101043
RWRHI

WEATHER ROUNDUP FOR HAWAII
NATIONAL WEATHER SERVICE HONOLULU HI
1200 AM HST WED FEB 10 2016

THIS IS AN AUTOMATED REPORT THAT HAS NOT BEEN QUALITY CONTROLLED.

NOTE..."FAIR" INDICATES FEW OR NO CLOUDS BELOW 12,000 FEET WITH NO
SIGNIFICANT WEATHER AND/OR OBSTRUCTIONS TO VISIBILITY.

* - THESE SITES REPORT LIMITED FIELDS

HIZ001>004-101100-
KAUAI-NIIHAU-

CITY           SKY/WX    TMP DP  RH WIND       PRES   REMARKS
LIHUE APT      CLEAR     62  56  80 W6        30.08F
PORT ALLEN*      N/A     63 N/A N/A NE8         N/A
POIPU*           N/A     57 N/A N/A VRB3        N/A
PRINCEVILLE*     N/A     63 N/A N/A S3          N/A
KOKOLE POINT*  NOT AVBL
MOLOAA DAIRY*    N/A     64  59  82 W2          N/A
WAIMEA HTS*      N/A     66  52  59 N3G10       N/A
PUU OPAE*        N/A     57  52  82 N3G9        N/A
PUU LUA*       NOT AVBL
MAKAHA RIDGE*    N/A     61  55  82 CALM        N/A
$$

HIZ005>011-101100-
OAHU-

CITY           SKY/WX    TMP DP  RH WIND       PRES   REMARKS
HONOLULU       PTCLDY    67  59  75 N5        30.08S
KALAELOA       CLEAR     62  55  77 NE3       30.09S
KANEOHE MCB    CLEAR     65  61  87 CALM      30.05F
WHEELER FIELD  FAIR      60  54  79 N3        30.07S
BELLOWS*         N/A    N/A N/A N/A SW5         N/A
KAHUKU*          N/A    N/A N/A N/A VRB1        N/A
WHEELER*         N/A    N/A N/A N/A N6          N/A
WAIANAE HARBOR   N/A    N/A N/A N/A NE3         N/A
DILLINGHAM*      N/A     81  75  83 MISG        N/A
KAHUKU TRN*      N/A     63  54  72 S3          N/A
KAWAILOA*        N/A     63  52  67 E5          N/A
KII*             N/A     63  57  82 S3          N/A
MAKUA RANGE*     N/A     64  54  68 E8          N/A
OAHU FOREST NW   N/A     57  54  88 CALM        N/A
SCHOFIELD BRK*   N/A     54  52  94 MISG        N/A
SCHOFIELD S*   NOT AVBL
WAIANAE VLY*     N/A     79  72  78 NW6         N/A
KUAOKALA*        N/A     64  55  72 E6          N/A
HONOULIUULI*   NOT AVBL
MOKUOLOE IS*   NOT AVBL
PALEHUA*         N/A     57  54  88 CALM        N/A
WAIAWA PHB*    NOT AVBL
$$

HIZ012>013-101100-
MOLOKAI-

CITY           SKY/WX    TMP DP  RH WIND       PRES   REMARKS
MOLOKAI AIRPT  CLEAR     62  57  83 CALM      30.09S
KALAUPAPA      NOT AVBL
MAKAPULAPAI*     N/A     63  59  88 S5          N/A
MOLOKAI 1*       N/A    N/A N/A N/A CALM        N/A
PUU ALII*        N/A     46  46 100 CALM        N/A
$$

HIZ016-101100-
KAHOOLAWE-

CITY           SKY/WX    TMP DP  RH WIND       PRES   REMARKS
KAHOOLAWE*       N/A     63 N/A N/A E1          N/A
HAKIOAWA*        N/A     62  59  90 MISG      30.49S
HONOKANAIA*      N/A     68  59  72 N3        30.02S
KANELOA*         N/A     66  59  77 N3        30.14S
KEALIALALO*    NOT AVBL
LUA MAKIKA*    NOT AVBL
$$

HIZ014>015-101100-
LANAI-

CITY           SKY/WX    TMP DP  RH WIND       PRES   REMARKS
LANAI CITY     FAIR      58  56  93 E6        30.12S
LANAI 1*       NOT AVBL
$$

HIZ017>028-101100-
MAUI-

CITY           SKY/WX    TMP DP  RH WIND       PRES   REMARKS
KAHULUI        MOCLDY    63  59  87 SE6       30.09S
KAPALUA-W MAUI NOT AVBL
HANA AIRPORT   NOT AVBL
HANA*            N/A     63 N/A N/A S3          N/A
HALEAKALA SUMM   N/A     45   3  18 W13         N/A
MAALAEA BAY*     N/A     63 N/A N/A NE5         N/A
HALEAKALA*     NOT AVBL
KAUPO GAP*       N/A    N/A N/A N/A N6G12       N/A
KULA 1*          N/A     53   2  12 SE7         N/A
$$

HIZ023>026-101100-
BIG ISLAND OF HAWAII COAST AND LOWER SLOPES-

CITY           SKY/WX    TMP DP  RH WIND       PRES   REMARKS
KAILUA KONA    NOT AVBL
HILO           CLEAR     65  60  84 SW3       30.07F
HONOKAA*         N/A     59 N/A N/A VRB1        N/A
KAWAIHAE MWT*    N/A     70 N/A N/A E6          N/A
KAWAIHAE*      NOT AVBL
SOUTH POINT*     N/A     63 N/A N/A NW9         N/A
UPOLU AIRPORT*   N/A    N/A N/A N/A SE9         N/A
KAMUELA*       NOT AVBL
HAKALAU*         N/A    N/A N/A N/A W6          N/A
KALOKO-HONOKO*   N/A     64  48  55 CALM      30.03F
PALI 2*          N/A     55  54  94 N6          N/A
KEALAKOMO*       N/A     72  59  64 NE7G13      N/A
KAUPULEHU*       N/A     63  50  63 SE12        N/A
KAPAPALA*        N/A     53  50  88 NW7         N/A
LOWER KAHUKU*    N/A     52 -45   1 N3          N/A
PUHE CS*         N/A     68  52  56 E7G13       N/A
PUHO CS*         N/A     65  55  69 E2          N/A
PTA KEAMUKU*     N/A     46  43  87 CALM        N/A
WAIKOLOA*        N/A     57  50  77 SE5G12      N/A
$$

HIZ027>028-101100-
BIG ISLAND OF HAWAII INTERIOR AND SUMMMITS-

CITY           SKY/WX    TMP DP  RH WIND       PRES   REMARKS
BRADSHAW FIELD CLOUDY    43  27  54 SE5       30.33F
MK VISITOR CEN   N/A     48 -18   6 N9          N/A
MAUNA KEA*       N/A     32  -8  18 NW10        N/A  WCI  24
MAUNA LOA*       N/A     41 -18   7 MISG        N/A
MAUNA LOA 1*   NOT AVBL
PTA KIPUKA*      N/A    N/A N/A N/A E5          N/A
PTA RANGE 17*    N/A     45  34  65 E7          N/A
PTA WEST*        N/A     45  37  76 SE12        N/A
NENE CABIN*      N/A     43   3  19 N7          N/A
AHUMOA*          N/A     48  10  21 E6          N/A
PTA PORTABLE*  NOT AVBL
PUU MALI*        N/A    N/A N/A N/A SW7         N/A
$$

HIC003-101100-
NORTHWEST ISLANDS-

CITY           SKY/WX    TMP DP  RH WIND       PRES   REMARKS
MIDWAY ISLAND  PTCLDY    66  66 100 S7        30.00F
MIDWAY NOS*    NOT AVBL
FRENCH FRIGATE NOT AVBL
$$

PHZ110>124-180-101100-
BUOY REPORTS

STATION/POSITION TIME  TEMP    WIND        PRES    WAVE   SWELL
                       AIR SEA DIR/SP/G            HT/PER HT/DIR
                 (UTC) (F)     (DEG/KT/KT) (MB)    (FT/S) (FT/D)
BUOY 51001       1000   74 75  270/ 14/ 17 1017.5F
BUOY 51101       0950   74 75  280/ 14/ 17 1017.4F  12/19  11/320
BUOY 51100       NOT AVBL
BUOY 51002       0950   76 78   50/ 14/ 17 1016.9F   8/14   7/ 40
BUOY 51003       0950   74 77   50/ 10/ 12 1017.7F   7/12   7/340
BUOY 51004       0950   76 77   60/ 14/ 16 1017.0S   9/13   8/340
BARBERS PT BUOY  NOT AVBL
WAIMEA BAY BUOY  1004      78                N/A     7/13   5/330
KAILUA BAY BUOY  1011      77                N/A     6/11   5/360
LANAI BUOY       NOT AVBL
BARBERS PT 2     1003      78                N/A     4/13   3/300
PAUWELA MAUI     0907      77                N/A     9/12   7/340
HILO             NOT AVBL
KANEOHE BAY BUOY 1006      76                N/A     6/11   5/350
HANALEI KAUAI    1001      77                N/A    10/13   8/320
KAHULUI HARBOR   NOT AVBL
HONOLULU HARBOR  1006   69 76   70/  1/  1 1018.9F
KILO NALU        NOT AVBL
HILO HARBOR      1006   66 76  190/  3/  4 1017.8F
MOKUOLOE         0900   67 77  230/  2/  2 1018.5R
NAWILIWILI       1018      77                N/A
WHOTS BUOY       NOT AVBL
BUOY 51028       NOT AVBL
$$

......................KEY........................................
  SKY/WX - SKY CONDITIONS/PRESENT WEATHER
  TMP    - TEMPERATURE IN FAHRENHEIT
  DWPT   - DEWPOINT IN FAHRENHEIT
  RH     - RELATIVE HUMIDITY IN PERCENT
  WIND   - DIRECTION AND SPEED /MPH FOR ISLANDS...KTS FOR BUOYS/
  PRES   - MEAN SEA LEVEL PRESSURE IN INCHES OF HG
  VSB    - VISIBILITY IN MILES
  HX     - HEAT INDEX
  WCI    - WIND CHILL INDEX
  VRB    - VARIABLE WIND DIRECTION
  N/A    - NOT AVAILABLE



USA.gov is the U.S. government's official web portal to all federal, state and local government web resources and services.